[[{"header":{"parameterUnit":"m.s-1","parameterCategory":1,"la1":30.2991,"la2":30.254,"lo1":-89.0895,"lo2":-89.0444,"dy":0.0017,"dx":0.0017,"nx":28,"ny":28,"refTime":"2026-01-02T09:00:00:Z","depth":0,"parameterNumber":2,"parameterNumberName":"U-component_of_WINDS"},"data":[0,0,0,0,0,0,0,0,0,0,0,0,0,0,0,0,0,0,0,0,0,0,0,0,0,0,0,0,0,0,0,0,0,0,0,0,0,0,0,0,0,0,0,0,0,0,0,0,0,0,0,0,0,0,0,0,0,0,3.1087,3.1085,0,3.0946,3.0945,3.0943,3.0865,3.0865,3.0864,3.0864,3.072,3.0717,3.0713,0,0,0,0,0,0,0,0,0,0,0,0,0,3.1289,3.1286,3.1087,3.1085,3.1084,3.0947,3.0945,3.0943,3.0865,3.0865,3.0864,3.0864,3.0721,3.0717,3.0713,0,0,0,0,0,0,0,0,0,0,0,0,0,3.118,3.1285,3.1087,3.1028,3.1022,3.0947,3.0944,3.0942,3.0865,3.0865,3.0864,3.0864,3.0723,3.0718,3.0712,3.0686,0,0,3.0696,3.0693,0,0,0,0,0,0,0,0,3.1187,3.1173,3.1039,3.1032,3.1025,3.0923,3.0963,3.0856,3.0865,3.0924,3.0864,3.0864,3.0788,3.0777,3.0751,3.0679,3.0673,3.0695,3.0692,3.0689,3.0688,0,0,0,0,0,0,0,3.1194,3.1179,3.1031,3.1037,3.1028,3.1009,3.0993,3.0942,3.086,3.0919,3.0913,3.0898,3.0784,3.0757,3.0747,3.067,3.0695,3.069,3.0687,3.0685,3.057,3.057,0,0,0,0,0,0,3.1211,3.1185,3.1036,3.1027,3.1106,3.1006,3.0988,3.0956,3.086,3.0845,3.0898,3.0894,3.0766,3.0754,3.0742,3.0704,3.0689,3.0684,3.0681,3.0569,3.057,3.057,0,0,0,0,0,0,3.1216,3.1199,3.1041,3.1105,3.1083,3.1002,3.0967,3.0953,3.0926,3.0844,3.0829,3.0885,3.0765,3.075,3.07,3.0698,3.0682,3.0677,3.0569,3.0569,3.057,3.0629,0,0,0,0,0,0,3.1222,3.1201,3.1189,3.1105,3.108,3.1002,3.0967,3.0951,3.0917,3.0911,3.0828,3.0814,3.0764,3.0709,3.0695,3.0691,3.0673,3.0569,3.0569,3.057,3.0627,3.0631,3.0635,0,0,0,0,0,3.123,3.1212,3.1189,3.1172,3.1064,3.1002,3.0988,3.093,3.0917,3.0905,3.0853,3.0817,3.0701,3.0704,3.0688,3.0682,3.0569,3.0569,3.057,3.0625,3.0631,3.0635,0,0,0,0,0,0,3.1298,3.1199,3.1173,3.1128,3.1074,3.0989,3.0972,3.0938,3.0886,3.0883,3.0814,3.0796,3.0753,3.0713,3.0718,3.0652,3.0631,3.0628,3.0679,3.0684,3.0688,3.0698,3.0668,0,0,0,0,0,3.1308,3.1265,3.1182,3.1149,3.1124,3.1053,3.1023,3.0984,3.0925,3.0902,3.0846,3.079,3.0741,3.071,3.0661,3.0622,3.0602,3.061,3.0614,3.0618,3.0616,3.0592,3.0594,3.0571,3.0571,3.0571,0,0,3.1327,3.1268,3.1245,3.1162,3.1115,3.1073,3.1034,3.099,3.0958,3.0895,3.0845,3.0802,3.0736,3.0691,3.0669,3.0656,3.0618,3.0618,3.0622,3.0617,3.0593,3.0595,3.0597,3.0572,3.0571,3.0571,0,0,3.1341,3.1292,3.126,3.1215,3.1145,3.1098,3.1091,3.1011,3.098,3.0929,3.0881,3.0842,3.0759,3.0714,3.068,3.0679,3.0644,3.0665,3.0686,3.0664,3.0666,3.0667,3.0666,3.0667,3.0663,3.0664,3.0664,0,3.1373,3.1307,3.1248,3.1207,3.1172,3.1114,3.1081,3.1039,3.0957,3.0934,3.0922,3.0817,3.0769,3.0713,3.0713,3.0688,3.0677,3.0673,3.067,3.0671,3.0671,3.067,3.067,3.0667,3.0666,3.0666,3.0666,0,3.1351,3.1307,3.1289,3.1211,3.1174,3.1138,3.1073,3.1043,3.1007,3.0962,3.0911,3.0851,3.0788,3.0773,3.0737,3.0712,3.0707,3.0683,3.0661,3.0677,3.0675,3.0674,3.0671,3.067,3.0669,3.0668,0,0,3.1401,3.1293,3.1287,3.1252,3.1172,3.1136,3.1098,3.1036,3.1012,3.0958,3.0924,3.0856,3.0834,3.0796,3.0756,3.0736,3.0739,3.0715,3.0712,3.0721,3.0708,3.0725,3.0725,3.0717,3.0716,3.0716,3.0713,0,3.1403,3.133,3.1276,3.1225,3.1183,3.1128,3.1095,3.1042,3.1,3.0958,3.0911,3.0864,3.0839,3.0816,3.0794,3.0743,3.0735,3.0743,3.0684,3.0682,3.0701,3.0724,3.0741,3.0741,3.0712,3.0711,3.0711,0,3.1394,3.1342,3.1287,3.1212,3.1192,3.1163,3.1103,3.1064,3.1004,3.0975,3.0933,3.0892,3.0849,3.0833,3.0773,3.078,3.0753,3.0725,3.0723,3.0714,3.0697,3.0715,3.074,3.074,3.0709,3.0709,3.0709,0,3.1435,3.1352,3.1308,3.1279,3.1191,3.1172,3.1135,3.1074,3.1041,3.099,3.0968,3.0912,3.0881,3.0839,3.0784,3.0777,3.0731,3.0709,3.0705,3.0706,3.0696,3.0697,3.0716,3.0681,3.0681,3.0681,3.0681,0,3.1442,3.1409,3.1326,3.1298,3.1261,3.12,3.1165,3.1123,3.107,3.1034,3.0984,3.0951,3.0881,3.084,3.0797,3.0754,3.0741,3.0716,3.0705,3.072,3.0723,3.07,3.0698,3.0681,3.0681,3.0681,3.0681,0,3.1481,3.1423,3.1371,3.1293,3.1272,3.1248,3.1181,3.1153,3.1109,3.1064,3.105,3.098,3.0929,3.0871,3.0801,3.0772,3.0733,3.0717,3.0753,3.0746,3.0744,3.0745,3.0748,3.0746,3.0714,3.0714,3.0715,0,3.1487,3.1461,3.1381,3.1353,3.1317,3.1273,3.124,3.1179,3.1147,3.1077,3.1058,3.1003,3.0956,3.0878,3.0821,3.0768,3.075,3.0755,3.0741,3.0757,3.0749,3.0751,3.0748,3.0758,3.0759,3.0759,3.076,0,3.1506,3.1479,3.1433,3.1377,3.1339,3.1292,3.1243,3.1223,3.1153,3.1119,3.1067,3.1031,3.096,3.0906,3.0846,3.0808,3.0772,3.0765,3.0761,3.0775,3.0797,3.0784,3.0762,3.0764,3.0764,3.0764,3.0763,3.0763,3.1528,3.1502,3.1442,3.1392,3.1349,3.1305,3.1275,3.1227,3.1183,3.112,3.1088,3.1036,3.0978,3.0894,3.0857,3.0816,3.0804,3.0798,3.0796,3.0795,3.08,3.0805,3.0805,3.0805,3.0805,3.0804,3.0804,0,3.1542,3.1501,3.1457,3.139,3.1351,3.1322,3.1267,3.1236,3.1192,3.1141,3.1096,3.1036,3.0985,3.0925,3.087,3.0849,3.0831,3.0836,3.0837,3.0828,3.0814,3.0822,3.0852,3.0852,3.0852,3.0852,3.0852,3.0852,3.1545,3.1501,3.1468,3.1402,3.1361,3.131,3.1281,3.124,3.1199,3.1135,3.1092,3.1054,3.0999,3.094,3.0892,3.0876,3.0857,3.0867,3.0846,3.0834,3.0829,3.0825,3.0833,3.0864,3.0864,3.0864,3.0864,3.0864]},{"header":{"parameterUnit":"m.s-1","parameterCategory":1,"la1":30.2991,"la2":30.254,"lo1":-89.0895,"lo2":-89.0444,"dy":0.0017,"dx":0.0017,"nx":28,"ny":28,"refTime":"2026-01-02T09:00:00:Z","depth":0,"parameterNumber":3,"parameterNumberName":"V-component_of_WINDS"},"data":[0,0,0,0,0,0,0,0,0,0,0,0,0,0,0,0,0,0,0,0,0,0,0,0,0,0,0,0,0,0,0,0,0,0,0,0,0,0,0,0,0,0,0,0,0,0,0,0,0,0,0,0,0,0,0,0,0,0,0.2343,0.2344,0,0.2449,0.245,0.2451,0.2476,0.2475,0.2474,0.2473,0.2584,0.2588,0.2592,0,0,0,0,0,0,0,0,0,0,0,0,0,0.2161,0.2165,0.2343,0.2344,0.2345,0.2449,0.245,0.2452,0.2476,0.2475,0.2474,0.2473,0.2583,0.2588,0.2592,0,0,0,0,0,0,0,0,0,0,0,0,0,0.2251,0.2166,0.2342,0.237,0.2373,0.2449,0.245,0.2452,0.2476,0.2475,0.2474,0.2473,0.2582,0.2587,0.2593,0.2649,0,0,0.2609,0.2612,0,0,0,0,0,0,0,0,0.2246,0.2258,0.2364,0.2368,0.2372,0.2448,0.2427,0.2518,0.2476,0.2437,0.2473,0.2472,0.254,0.2549,0.2571,0.2654,0.2659,0.261,0.2613,0.2616,0.2617,0,0,0,0,0,0,0,0.224,0.2253,0.2385,0.2366,0.237,0.2377,0.2388,0.2445,0.2494,0.244,0.2442,0.2454,0.2542,0.2566,0.2574,0.2661,0.261,0.2615,0.2618,0.262,0.2794,0.2795,0,0,0,0,0,0,0.2229,0.2248,0.2381,0.2388,0.2305,0.2381,0.2394,0.2425,0.2493,0.2502,0.2455,0.2455,0.2557,0.2568,0.2578,0.2647,0.2616,0.2621,0.2624,0.2792,0.2794,0.2795,0,0,0,0,0,0,0.2225,0.224,0.2377,0.2319,0.2336,0.2385,0.242,0.2427,0.2451,0.2504,0.2513,0.2471,0.2557,0.2571,0.2631,0.2652,0.2623,0.2628,0.2791,0.2793,0.2795,0.2787,0,0,0,0,0,0,0.2219,0.2239,0.226,0.2319,0.2339,0.2427,0.2421,0.243,0.2461,0.2461,0.2521,0.253,0.2557,0.2622,0.2636,0.2659,0.2632,0.2789,0.2792,0.2794,0.2786,0.2789,0.2791,0,0,0,0,0,0.2213,0.2255,0.2261,0.2277,0.2368,0.2429,0.244,0.247,0.2462,0.2484,0.2518,0.2528,0.2647,0.2628,0.2644,0.2669,0.2788,0.2791,0.2794,0.2785,0.2788,0.2791,0,0,0,0,0,0,0.2199,0.2263,0.2271,0.2333,0.2375,0.2432,0.2461,0.2473,0.2518,0.2517,0.2553,0.2566,0.2624,0.2653,0.263,0.2726,0.2718,0.2724,0.2705,0.2709,0.2711,0.2703,0.2637,0,0,0,0,0,0.2202,0.2246,0.23,0.235,0.2371,0.2412,0.244,0.2459,0.2504,0.2522,0.2561,0.2604,0.2652,0.2682,0.2729,0.279,0.2803,0.2815,0.2818,0.282,0.2824,0.2858,0.2863,0.2805,0.2805,0.2805,0,0,0.2211,0.2252,0.2278,0.2348,0.2383,0.2427,0.2427,0.2475,0.2508,0.253,0.2588,0.2618,0.2669,0.273,0.2759,0.2756,0.2843,0.2823,0.2824,0.2828,0.2861,0.2867,0.2871,0.2807,0.2807,0.2807,0,0,0.225,0.2285,0.233,0.2364,0.2416,0.2444,0.2454,0.251,0.253,0.2589,0.2606,0.2647,0.2728,0.2763,0.2792,0.2842,0.2853,0.2857,0.287,0.2902,0.2907,0.2911,0.2928,0.2934,0.2861,0.2861,0.2861,0,0.2254,0.2321,0.2351,0.2397,0.2427,0.2448,0.2493,0.2526,0.2591,0.2611,0.2607,0.2708,0.2744,0.2813,0.2825,0.2848,0.2861,0.285,0.2904,0.2908,0.2913,0.2929,0.2935,0.2861,0.2861,0.2861,0.2861,0,0.2323,0.237,0.2399,0.246,0.2494,0.2539,0.2576,0.2607,0.2623,0.2651,0.271,0.2754,0.2809,0.2827,0.2844,0.2898,0.2894,0.2897,0.2888,0.2918,0.2933,0.294,0.2861,0.2861,0.2861,0.2861,0,0,0.2356,0.2431,0.2442,0.2469,0.2528,0.2564,0.2611,0.2663,0.2688,0.2733,0.2772,0.2839,0.2841,0.2874,0.2895,0.2923,0.2958,0.2922,0.2923,0.2926,0.3019,0.3016,0.3023,0.2966,0.2967,0.2969,0.3014,0,0.24,0.2482,0.251,0.2578,0.2621,0.2641,0.2681,0.2722,0.2749,0.2789,0.282,0.2866,0.2866,0.2885,0.2914,0.2948,0.2977,0.2945,0.3002,0.3004,0.2987,0.3031,0.3029,0.307,0.3021,0.3022,0.3023,0,0.2463,0.2506,0.2578,0.263,0.2649,0.2684,0.2734,0.2773,0.2819,0.2837,0.2872,0.2891,0.294,0.2929,0.2997,0.2974,0.3,0.3019,0.3022,0.3027,0.3014,0.3037,0.3084,0.3089,0.3033,0.3032,0.3032,0,0.2476,0.2553,0.2606,0.2629,0.2692,0.2716,0.2743,0.2788,0.2818,0.2862,0.2881,0.2931,0.2958,0.2996,0.3027,0.3017,0.3092,0.3084,0.3107,0.3106,0.3121,0.312,0.3171,0.314,0.3139,0.3139,0.3139,0,0.2522,0.2565,0.2613,0.2645,0.2693,0.2726,0.2773,0.2802,0.2841,0.2879,0.2901,0.2936,0.2976,0.3017,0.3042,0.3093,0.3106,0.3121,0.3127,0.3118,0.3116,0.3134,0.3132,0.3141,0.3141,0.314,0.314,0,0.2546,0.258,0.2638,0.2692,0.2706,0.274,0.2786,0.2818,0.2846,0.2894,0.2907,0.2951,0.3,0.3035,0.3099,0.3115,0.317,0.3177,0.3154,0.3157,0.3177,0.3174,0.3242,0.3252,0.3214,0.3214,0.3215,0,0.2572,0.2605,0.2662,0.2689,0.2716,0.2759,0.2788,0.2822,0.2852,0.2906,0.2932,0.2982,0.3023,0.31,0.3138,0.3187,0.3194,0.3214,0.3201,0.3191,0.3192,0.3189,0.3192,0.3215,0.3216,0.3216,0.3216,0,0.2614,0.2629,0.2671,0.2718,0.2753,0.2793,0.2832,0.2853,0.2893,0.2926,0.2976,0.3008,0.3072,0.3121,0.3173,0.3201,0.3215,0.322,0.3227,0.3218,0.3203,0.321,0.3157,0.3218,0.3218,0.3218,0.3217,0.3217,0.2639,0.2669,0.2713,0.2759,0.2792,0.2828,0.286,0.2892,0.2934,0.2987,0.3005,0.3056,0.3101,0.3171,0.3201,0.3241,0.324,0.3252,0.3255,0.3256,0.3255,0.3198,0.3251,0.3251,0.3251,0.3251,0.3251,0,0.2681,0.271,0.2752,0.2806,0.2842,0.2851,0.2896,0.2925,0.2969,0.301,0.305,0.3106,0.3154,0.3195,0.3244,0.3269,0.3276,0.3281,0.3279,0.3285,0.3254,0.3242,0.3274,0.3274,0.3274,0.3274,0.3274,0.3274,0.2707,0.2757,0.2777,0.2844,0.2874,0.2923,0.2947,0.2981,0.3013,0.3075,0.3114,0.314,0.3181,0.3233,0.3277,0.3288,0.3305,0.3307,0.332,0.329,0.3287,0.3284,0.3273,0.3311,0.3311,0.3347,0.3347,0.3347]}]]